QFA64 FAOR-YSSY

Flight info

Callsign QFA64
Flight time N/A
Altitude 33000
Route APDAK1D APDAK UQ48 APMAT DCT 3139S03249E 3305S03404E 3558S03720E/N0489F350 3901S04139E 4207S04637E 4459S05133E/N0485F360 4745S05633E 5036S06233E/N0486F350 5256S06914E 5358S07500E/N0486F370 5404S07544E 5451S08409E 5458S08816E 5438S09747E 5402S10424E 5305S11152E 5135S12053E 4920S12933E/N0472F390 4701S13634E 4439S14119E 4046S14617E DCT MAKRL/N0479F400 J163 CB W423 CULIN Y59 RIVET
Aircraft A388/J-SADE2E3FGHIJ3J4J5M1RWXY/LB1D1

Departure

Time N/A
Airport O.R. Tambo International Airport (FAOR)

Arrival

Time 2026-05-07 19:41
Airport Sydney Kingsford Smith International Airport (YSSY)
Time Latitude Longitude Altitude Speed Heading
2026-05-07 15:50 -52.41889 116.45331 37042 ft 525 kts 71°
2026-05-07 15:51 -52.39962 116.56859 37043 ft 525 kts 71°
2026-05-07 15:51 -52.38018 116.68408 37046 ft 525 kts 71°
2026-05-07 15:52 -52.36069 116.79917 37045 ft 525 kts 71°
2026-05-07 15:52 -52.34113 116.91389 37047 ft 525 kts 71°
2026-05-07 15:53 -52.32138 117.02892 37050 ft 525 kts 71°
2026-05-07 15:53 -52.30156 117.14364 37073 ft 527 kts 71°
2026-05-07 15:53 -52.29152 117.20145 37520 ft 526 kts 71°
2026-05-07 15:54 -52.28163 117.25826 38029 ft 524 kts 71°
2026-05-07 15:54 -52.27156 117.31593 38517 ft 523 kts 71°
2026-05-07 15:54 -52.26157 117.37288 38914 ft 522 kts 71°
2026-05-07 15:54 -52.25149 117.43016 39044 ft 524 kts 71°
2026-05-07 15:55 -52.24152 117.48677 39061 ft 517 kts 71°
2026-05-07 15:55 -52.22152 117.59957 39062 ft 519 kts 71°
2026-05-07 15:56 -52.20136 117.71256 39063 ft 519 kts 71°
2026-05-07 15:56 -52.18112 117.82531 39068 ft 518 kts 71°
2026-05-07 15:57 -52.16077 117.93796 39069 ft 518 kts 71°
2026-05-07 15:57 -52.14031 118.05056 39067 ft 518 kts 71°
2026-05-07 15:58 -52.11977 118.16289 39070 ft 517 kts 71°
2026-05-07 15:58 -52.09930 118.27414 39069 ft 517 kts 71°
2026-05-07 15:59 -52.07845 118.38683 39071 ft 517 kts 70°
2026-05-07 15:59 -52.05779 118.49774 39070 ft 517 kts 70°
2026-05-07 16:00 -52.03686 118.60951 39070 ft 517 kts 70°
2026-05-07 16:00 -52.01581 118.72120 39077 ft 516 kts 70°
2026-05-07 16:01 -51.99466 118.83275 39082 ft 516 kts 70°
2026-05-07 16:01 -51.97343 118.94412 39077 ft 517 kts 70°
2026-05-07 16:02 -51.95211 119.05525 39085 ft 517 kts 70°
2026-05-07 16:02 -51.93064 119.16656 39043 ft 517 kts 70°
2026-05-07 16:03 -51.90909 119.27758 39077 ft 517 kts 70°
2026-05-07 16:03 -51.88737 119.38885 39075 ft 517 kts 70°
2026-05-07 16:04 -51.86561 119.49968 39077 ft 517 kts 70°
2026-05-07 16:04 -51.84385 119.60989 39086 ft 518 kts 70°
2026-05-07 16:05 -51.82170 119.72146 39090 ft 516 kts 70°
2026-05-07 16:05 -51.79983 119.83093 39080 ft 516 kts 70°
2026-05-07 16:06 -51.77763 119.94147 39078 ft 516 kts 70°
2026-05-07 16:06 -51.75534 120.05182 39076 ft 516 kts 70°
2026-05-07 16:07 -51.73298 120.16189 39080 ft 517 kts 70°
2026-05-07 16:07 -51.71047 120.27211 39084 ft 518 kts 70°
2026-05-07 16:08 -51.68782 120.38241 39091 ft 519 kts 70°
2026-05-07 16:08 -51.66516 120.49213 39097 ft 520 kts 70°
2026-05-07 16:09 -51.64212 120.60332 39107 ft 520 kts 70°
2026-05-07 16:09 -51.61928 120.71318 39107 ft 521 kts 70°
2026-05-07 16:10 -51.59619 120.82374 39110 ft 521 kts 70°
2026-05-07 16:10 -51.57233 120.93392 39111 ft 521 kts 68°
2026-05-07 16:11 -51.54863 121.04332 39110 ft 521 kts 70°
2026-05-07 16:11 -51.52537 121.15367 39109 ft 522 kts 70°
2026-05-07 16:12 -51.50189 121.26382 39108 ft 522 kts 70°
2026-05-07 16:12 -51.47820 121.37400 39107 ft 522 kts 70°
2026-05-07 16:13 -51.45429 121.48434 39112 ft 523 kts 70°
2026-05-07 16:13 -51.43029 121.59426 39110 ft 523 kts 70°
2026-05-07 16:14 -51.40613 121.70426 39113 ft 524 kts 70°
2026-05-07 16:14 -51.38183 121.81431 39117 ft 525 kts 70°
2026-05-07 16:15 -51.35750 121.92394 39116 ft 525 kts 70°
2026-05-07 16:15 -51.33295 122.03397 39115 ft 526 kts 70°
2026-05-07 16:16 -51.30821 122.14427 39126 ft 526 kts 69°
2026-05-07 16:16 -51.28338 122.25438 39120 ft 527 kts 69°
2026-05-07 16:17 -51.25839 122.36463 39123 ft 528 kts 69°
2026-05-07 16:17 -51.23328 122.47482 39118 ft 529 kts 69°
2026-05-07 16:18 -51.20799 122.58524 39125 ft 529 kts 69°
2026-05-07 16:18 -51.18263 122.69540 39125 ft 530 kts 69°
2026-05-07 16:19 -51.15727 122.80498 39129 ft 530 kts 69°
2026-05-07 16:19 -51.13153 122.91561 39125 ft 530 kts 69°
2026-05-07 16:20 -51.10575 123.02587 39123 ft 531 kts 69°
2026-05-07 16:20 -51.08006 123.13516 39123 ft 531 kts 69°
2026-05-07 16:21 -51.05410 123.24507 39127 ft 531 kts 69°
2026-05-07 16:21 -51.02805 123.35480 39119 ft 532 kts 69°
2026-05-07 16:22 -51.00182 123.46471 39128 ft 532 kts 69°
2026-05-07 16:22 -50.97547 123.57456 39126 ft 532 kts 69°
2026-05-07 16:23 -50.94898 123.68445 39134 ft 532 kts 69°
2026-05-07 16:23 -50.92246 123.79390 39127 ft 533 kts 69°
2026-05-07 16:24 -50.89576 123.90358 39131 ft 533 kts 68°
2026-05-07 16:24 -50.86894 124.01320 39128 ft 534 kts 68°
2026-05-07 16:25 -50.84216 124.12209 39127 ft 534 kts 68°
2026-05-07 16:25 -50.81517 124.23129 39128 ft 535 kts 68°
2026-05-07 16:26 -50.78792 124.34100 39132 ft 535 kts 68°
2026-05-07 16:26 -50.76061 124.45045 39128 ft 536 kts 68°
2026-05-07 16:27 -50.73315 124.55994 39129 ft 536 kts 68°
2026-05-07 16:27 -50.70558 124.66931 39129 ft 536 kts 68°
2026-05-07 16:28 -50.67791 124.77848 38956 ft 529 kts 69°
2026-05-07 16:28 -50.66457 124.83096 39132 ft 517 kts 69°
2026-05-07 16:28 -50.65126 124.88321 39130 ft 509 kts 69°
2026-05-07 16:29 -50.62486 124.98651 39129 ft 510 kts 69°
2026-05-07 16:29 -50.59821 125.09027 39130 ft 510 kts 69°
2026-05-07 16:30 -50.57150 125.19381 39127 ft 510 kts 69°
2026-05-07 16:30 -50.54470 125.29721 39133 ft 510 kts 69°
2026-05-07 16:31 -50.51786 125.40028 39131 ft 510 kts 69°
2026-05-07 16:31 -50.49080 125.50373 39132 ft 510 kts 69°
2026-05-07 16:32 -50.46372 125.60681 39130 ft 510 kts 69°
2026-05-07 16:32 -50.43673 125.70907 39133 ft 510 kts 69°
2026-05-07 16:33 -50.41393 125.79512 39130 ft 510 kts 69°
2026-05-07 16:33 -50.38664 125.89768 39129 ft 510 kts 68°
2026-05-07 16:34 -50.35917 126.00043 39133 ft 510 kts 68°
2026-05-07 16:34 -50.33170 126.10277 39135 ft 510 kts 68°
2026-05-07 16:35 -50.30410 126.20512 39135 ft 511 kts 68°
2026-05-07 16:35 -50.27653 126.30690 39134 ft 511 kts 68°
2026-05-07 16:36 -50.24871 126.40916 39132 ft 511 kts 68°
2026-05-07 16:36 -50.22079 126.51132 39135 ft 511 kts 68°
2026-05-07 16:37 -50.19280 126.61334 39137 ft 511 kts 68°
2026-05-07 16:37 -50.16472 126.71520 39134 ft 511 kts 68°
2026-05-07 16:38 -50.13656 126.81693 39132 ft 511 kts 68°
2026-05-07 16:38 -50.10843 126.91810 39137 ft 511 kts 68°
2026-05-07 16:39 -50.08010 127.01955 39140 ft 511 kts 68°
2026-05-07 16:39 -50.05165 127.12102 39138 ft 511 kts 68°
2026-05-07 16:40 -50.02311 127.22233 39136 ft 511 kts 68°
2026-05-07 16:40 -49.99448 127.32356 39139 ft 511 kts 68°
2026-05-07 16:41 -49.96570 127.42488 39136 ft 512 kts 68°
2026-05-07 16:41 -49.93688 127.52593 39137 ft 512 kts 68°
2026-05-07 16:42 -49.90801 127.62668 39141 ft 512 kts 68°
2026-05-07 16:42 -49.87893 127.72779 39140 ft 513 kts 68°
2026-05-07 16:43 -49.84976 127.82875 39140 ft 513 kts 68°
2026-05-07 16:43 -49.82053 127.92950 39139 ft 513 kts 68°
2026-05-07 16:44 -49.79114 128.03037 39144 ft 513 kts 68°
2026-05-07 16:44 -49.76172 128.13093 39144 ft 513 kts 68°
2026-05-07 16:45 -49.73220 128.23142 39143 ft 513 kts 68°
2026-05-07 16:45 -49.70270 128.33140 39142 ft 513 kts 68°
2026-05-07 16:46 -49.67298 128.43175 39140 ft 513 kts 67°
2026-05-07 16:46 -49.64335 128.53137 39135 ft 513 kts 67°
2026-05-07 16:47 -49.61361 128.63092 39139 ft 513 kts 67°
2026-05-07 16:47 -49.58363 128.73088 39134 ft 513 kts 67°
2026-05-07 16:48 -49.55357 128.83071 39137 ft 513 kts 67°
2026-05-07 16:48 -49.52342 128.93043 39142 ft 513 kts 67°
2026-05-07 16:49 -49.49322 129.02991 39141 ft 514 kts 67°
2026-05-07 16:49 -49.46287 129.12949 39142 ft 514 kts 67°
2026-05-07 16:50 -49.43243 129.22899 39140 ft 514 kts 67°
2026-05-07 16:50 -49.40214 129.32782 39138 ft 514 kts 67°
2026-05-07 16:51 -49.37163 129.42704 39142 ft 514 kts 67°
2026-05-07 16:51 -49.34101 129.52622 39140 ft 514 kts 67°
2026-05-07 16:52 -49.31056 129.62547 39138 ft 513 kts 69°
2026-05-07 16:52 -49.28216 129.72593 39139 ft 513 kts 69°
2026-05-07 16:53 -49.25368 129.82606 39138 ft 513 kts 69°
2026-05-07 16:53 -49.22506 129.92534 39138 ft 514 kts 69°
2026-05-07 16:54 -49.19604 130.02528 39137 ft 514 kts 69°
2026-05-07 16:54 -49.16685 130.12520 39137 ft 514 kts 69°
2026-05-07 16:55 -49.13752 130.22512 39139 ft 514 kts 69°
2026-05-07 16:55 -49.10836 130.32407 39139 ft 515 kts 69°
2026-05-07 16:56 -49.07881 130.42393 39132 ft 515 kts 69°
2026-05-07 16:56 -49.03440 130.57322 39138 ft 515 kts 69°
2026-05-07 16:57 -49.00474 130.67246 39131 ft 515 kts 69°
2026-05-07 16:57 -48.97490 130.77184 39138 ft 515 kts 69°
2026-05-07 16:58 -48.94514 130.87058 39130 ft 515 kts 69°
2026-05-07 16:58 -48.91516 130.96969 39136 ft 515 kts 69°
2026-05-07 16:59 -48.88511 131.06858 39139 ft 515 kts 69°
2026-05-07 16:59 -48.85492 131.16755 39138 ft 515 kts 68°
2026-05-07 17:00 -48.82494 131.26544 39133 ft 515 kts 68°
2026-05-07 17:00 -48.79460 131.36411 39135 ft 515 kts 68°
2026-05-07 17:01 -48.76428 131.46234 39131 ft 515 kts 68°
2026-05-07 17:01 -48.73375 131.56086 39131 ft 515 kts 68°
2026-05-07 17:02 -48.70319 131.65905 39129 ft 515 kts 68°
2026-05-07 17:02 -48.67260 131.75699 39130 ft 515 kts 68°
2026-05-07 17:03 -48.64203 131.85446 39135 ft 516 kts 68°
2026-05-07 17:03 -48.61115 131.95253 39138 ft 516 kts 68°
2026-05-07 17:04 -48.58024 132.05033 39140 ft 516 kts 68°
2026-05-07 17:04 -48.54926 132.14796 39124 ft 516 kts 68°
2026-05-07 17:05 -48.51812 132.24572 39126 ft 516 kts 68°
2026-05-07 17:05 -48.48700 132.34304 39129 ft 516 kts 68°
2026-05-07 17:06 -48.45577 132.44033 39126 ft 515 kts 68°
2026-05-07 17:06 -48.42450 132.53736 39129 ft 515 kts 68°
2026-05-07 17:07 -48.39327 132.63389 39131 ft 515 kts 68°
2026-05-07 17:07 -48.36180 132.73081 39130 ft 515 kts 68°
2026-05-07 17:08 -48.33035 132.82731 39129 ft 515 kts 68°
2026-05-07 17:08 -48.29878 132.92378 39130 ft 515 kts 68°
2026-05-07 17:09 -48.26703 133.02046 39126 ft 515 kts 68°
2026-05-07 17:09 -48.23536 133.11652 39126 ft 515 kts 68°
2026-05-07 17:10 -48.20355 133.21264 39126 ft 515 kts 68°
2026-05-07 17:10 -48.17152 133.30904 39124 ft 515 kts 68°
2026-05-07 17:11 -48.13948 133.40512 39127 ft 515 kts 68°
2026-05-07 17:11 -48.10756 133.50051 39128 ft 515 kts 68°
2026-05-07 17:12 -48.07538 133.59630 39127 ft 515 kts 68°
2026-05-07 17:12 -48.04317 133.69183 39126 ft 515 kts 68°
2026-05-07 17:13 -48.01077 133.78758 39123 ft 515 kts 68°
2026-05-07 17:13 -47.97837 133.88293 39127 ft 515 kts 68°
2026-05-07 17:14 -47.94608 133.97766 39129 ft 515 kts 68°
2026-05-07 17:14 -47.91345 134.07300 39125 ft 515 kts 68°
2026-05-07 17:15 -47.88075 134.16820 39119 ft 515 kts 68°
2026-05-07 17:15 -47.84808 134.26300 39123 ft 515 kts 68°
2026-05-07 17:16 -47.81545 134.35731 39119 ft 514 kts 68°
2026-05-07 17:16 -47.78257 134.45201 39117 ft 514 kts 68°
2026-05-07 17:17 -47.75521 134.53054 39116 ft 514 kts 68°
2026-05-07 17:17 -47.71690 134.64011 39112 ft 514 kts 68°
2026-05-07 17:18 -47.68379 134.73446 39115 ft 515 kts 68°
2026-05-07 17:18 -47.65628 134.81257 39112 ft 515 kts 68°
2026-05-07 17:19 -47.62300 134.90675 39111 ft 515 kts 68°
2026-05-07 17:19 -47.58976 135.00050 39113 ft 515 kts 68°
2026-05-07 17:20 -47.55615 135.09493 39116 ft 515 kts 68°
2026-05-07 17:20 -47.52265 135.18874 39112 ft 515 kts 68°
2026-05-07 17:21 -47.48910 135.28233 39110 ft 515 kts 68°
2026-05-07 17:21 -47.45549 135.37580 39111 ft 515 kts 68°
2026-05-07 17:22 -47.42168 135.46946 39110 ft 515 kts 68°
2026-05-07 17:22 -47.38805 135.56228 39116 ft 515 kts 68°
2026-05-07 17:23 -47.35399 135.65598 39105 ft 515 kts 68°
2026-05-07 17:23 -47.32018 135.74867 39106 ft 515 kts 68°
2026-05-07 17:24 -47.28619 135.84154 39106 ft 515 kts 68°
2026-05-07 17:24 -47.25204 135.93449 39103 ft 515 kts 68°
2026-05-07 17:25 -47.21783 136.02730 39101 ft 515 kts 68°
2026-05-07 17:25 -47.18359 136.11987 39102 ft 515 kts 68°
2026-05-07 17:26 -47.14926 136.21236 39097 ft 516 kts 68°
2026-05-07 17:26 -47.11482 136.30485 39096 ft 516 kts 68°
2026-05-07 17:27 -47.08057 136.39664 39096 ft 516 kts 68°
2026-05-07 17:27 -47.04609 136.48885 39095 ft 516 kts 68°
2026-05-07 17:28 -47.01034 136.58042 39097 ft 519 kts 64°
2026-05-07 17:28 -46.96975 136.66842 39090 ft 521 kts 62°
2026-05-07 17:29 -46.92927 136.75651 39088 ft 521 kts 63°
2026-05-07 17:29 -46.88896 136.84430 39094 ft 521 kts 63°
2026-05-07 17:30 -46.84857 136.93179 39088 ft 521 kts 63°
2026-05-07 17:30 -46.80797 137.01931 39092 ft 521 kts 62°
2026-05-07 17:31 -46.76714 137.10703 39091 ft 521 kts 62°
2026-05-07 17:31 -46.72632 137.19444 39091 ft 521 kts 62°
2026-05-07 17:32 -46.68561 137.28134 39087 ft 522 kts 62°
2026-05-07 17:32 -46.64466 137.36849 39090 ft 522 kts 62°
2026-05-07 17:33 -46.60368 137.45544 39083 ft 522 kts 62°
2026-05-07 17:33 -46.56257 137.54238 39086 ft 522 kts 62°
2026-05-07 17:34 -46.52136 137.62926 39084 ft 522 kts 62°
2026-05-07 17:34 -46.48005 137.71609 39084 ft 522 kts 62°
2026-05-07 17:35 -46.43861 137.80291 39079 ft 522 kts 62°
2026-05-07 17:35 -46.39719 137.88942 39079 ft 523 kts 62°
2026-05-07 17:36 -46.35569 137.97584 39077 ft 523 kts 62°
2026-05-07 17:36 -46.31414 138.06210 39078 ft 523 kts 62°
2026-05-07 17:37 -46.27251 138.14825 39078 ft 523 kts 62°
2026-05-07 17:37 -46.23095 138.23400 39075 ft 523 kts 62°
2026-05-07 17:38 -46.18912 138.32003 39076 ft 523 kts 62°
2026-05-07 17:38 -46.14721 138.40599 39069 ft 523 kts 62°
2026-05-07 17:39 -46.10517 138.49193 39074 ft 523 kts 61°
2026-05-07 17:39 -46.06350 138.57685 39073 ft 524 kts 61°
2026-05-07 17:40 -46.02098 138.66323 39067 ft 524 kts 61°
2026-05-07 17:40 -45.97872 138.74885 39070 ft 524 kts 61°
2026-05-07 17:41 -45.93646 138.83420 39076 ft 524 kts 61°
2026-05-07 17:41 -45.89411 138.91947 39074 ft 525 kts 61°
2026-05-07 17:42 -45.85163 139.00474 39068 ft 525 kts 61°
2026-05-07 17:42 -45.80906 139.08994 39065 ft 526 kts 61°
2026-05-07 17:43 -45.76661 139.17464 39071 ft 526 kts 61°
2026-05-07 17:43 -45.72387 139.25968 39070 ft 526 kts 60°
2026-05-07 17:44 -45.68102 139.34467 39064 ft 527 kts 60°
2026-05-07 17:44 -45.63799 139.42975 39069 ft 527 kts 60°
2026-05-07 17:45 -45.59497 139.51456 39073 ft 527 kts 60°
2026-05-07 17:45 -45.55184 139.59933 39066 ft 528 kts 60°
2026-05-07 17:46 -45.50862 139.68403 39066 ft 528 kts 60°
2026-05-07 17:46 -45.46535 139.76858 39069 ft 528 kts 60°
2026-05-07 17:47 -45.42195 139.85313 39065 ft 528 kts 60°
2026-05-07 17:47 -45.37842 139.93769 39060 ft 528 kts 60°
2026-05-07 17:48 -45.33492 140.02192 39058 ft 528 kts 60°
2026-05-07 17:48 -45.29158 140.10561 39055 ft 529 kts 60°
2026-05-07 17:49 -45.24796 140.18960 39059 ft 529 kts 60°
2026-05-07 17:49 -45.20422 140.27355 39056 ft 529 kts 59°
2026-05-07 17:50 -45.16038 140.35744 39056 ft 529 kts 59°
2026-05-07 17:50 -45.11654 140.44112 39060 ft 530 kts 59°
2026-05-07 17:51 -45.07259 140.52474 39049 ft 530 kts 59°
2026-05-07 17:51 -45.02850 140.60838 39058 ft 530 kts 59°
2026-05-07 17:52 -44.98433 140.69193 39052 ft 530 kts 59°
2026-05-07 17:52 -44.94027 140.77503 39044 ft 530 kts 59°
2026-05-07 17:53 -44.89572 140.85882 39049 ft 530 kts 59°
2026-05-07 17:53 -44.85170 140.94134 39052 ft 530 kts 59°
2026-05-07 17:54 -44.80717 141.02461 39046 ft 530 kts 59°
2026-05-07 17:54 -44.76273 141.10746 39042 ft 531 kts 59°
2026-05-07 17:55 -44.71824 141.19024 39044 ft 531 kts 58°
2026-05-07 17:55 -44.67386 141.27265 39045 ft 531 kts 58°
2026-05-07 17:56 -44.62516 141.35222 39042 ft 538 kts 50°
2026-05-07 17:56 -44.57204 141.42535 39043 ft 538 kts 49°
2026-05-07 17:57 -44.52752 141.48743 39045 ft 539 kts 50°
2026-05-07 17:57 -44.46586 141.57342 39044 ft 539 kts 50°
2026-05-07 17:58 -44.41302 141.64685 39042 ft 539 kts 49°
2026-05-07 17:58 -44.35926 141.72127 39045 ft 540 kts 49°
2026-05-07 17:59 -44.30584 141.79497 39048 ft 540 kts 49°
2026-05-07 17:59 -44.25234 141.86859 39039 ft 540 kts 49°
2026-05-07 18:00 -44.19873 141.94216 39044 ft 541 kts 49°
2026-05-07 18:00 -44.14502 142.01567 39043 ft 541 kts 49°
2026-05-07 18:01 -44.09996 142.07716 39045 ft 541 kts 49°
2026-05-07 18:01 -44.04612 142.15049 39044 ft 542 kts 49°
2026-05-07 18:02 -43.96546 142.25997 39042 ft 543 kts 49°
2026-05-07 18:03 -43.91102 142.33361 39037 ft 543 kts 49°
2026-05-07 18:03 -43.85714 142.40630 39037 ft 544 kts 49°
2026-05-07 18:04 -43.80295 142.47921 39039 ft 544 kts 49°
2026-05-07 18:04 -43.74861 142.55212 39034 ft 545 kts 49°
2026-05-07 18:05 -43.69401 142.62519 39031 ft 545 kts 48°
2026-05-07 18:05 -43.63951 142.69794 39032 ft 545 kts 48°
2026-05-07 18:06 -43.58483 142.77073 39026 ft 545 kts 48°
2026-05-07 18:06 -43.53017 142.84330 39027 ft 545 kts 48°
2026-05-07 18:07 -43.47584 142.91525 39023 ft 545 kts 48°
2026-05-07 18:07 -43.42109 142.98755 39023 ft 546 kts 48°
2026-05-07 18:08 -43.36590 143.06025 39021 ft 546 kts 48°
2026-05-07 18:08 -43.31138 143.13188 39022 ft 546 kts 48°
2026-05-07 18:09 -43.25636 143.20397 39020 ft 546 kts 48°
2026-05-07 18:09 -43.20126 143.27597 39020 ft 547 kts 48°
2026-05-07 18:10 -43.14616 143.34779 39019 ft 547 kts 48°
2026-05-07 18:10 -43.09092 143.41960 39021 ft 548 kts 48°
2026-05-07 18:11 -43.03565 143.49127 39023 ft 548 kts 48°
2026-05-07 18:11 -42.98023 143.56294 39024 ft 548 kts 48°
2026-05-07 18:12 -42.92488 143.63432 39024 ft 549 kts 48°
2026-05-07 18:12 -42.86921 143.70595 39027 ft 549 kts 48°
2026-05-07 18:13 -42.81351 143.77742 39012 ft 549 kts 47°
2026-05-07 18:13 -42.75783 143.84868 39017 ft 549 kts 47°
2026-05-07 18:14 -42.70251 143.91930 39020 ft 549 kts 47°
2026-05-07 18:14 -42.64656 143.99053 39018 ft 550 kts 47°
2026-05-07 18:15 -42.59063 144.06156 39017 ft 550 kts 47°
2026-05-07 18:15 -42.53473 144.13238 39018 ft 550 kts 47°
2026-05-07 18:16 -42.47883 144.20299 39019 ft 550 kts 47°
2026-05-07 18:16 -42.42283 144.27357 39019 ft 550 kts 47°
2026-05-07 18:17 -42.36697 144.34378 39015 ft 549 kts 47°
2026-05-07 18:17 -42.31040 144.41470 39017 ft 549 kts 47°
2026-05-07 18:18 -42.25480 144.48424 39015 ft 549 kts 47°
2026-05-07 18:18 -42.19868 144.55425 39018 ft 548 kts 47°
2026-05-07 18:19 -42.14233 144.62436 39019 ft 548 kts 47°
2026-05-07 18:19 -42.08628 144.69393 39022 ft 547 kts 47°
2026-05-07 18:20 -42.03035 144.76316 39023 ft 546 kts 47°
2026-05-07 18:20 -41.97476 144.83181 39025 ft 545 kts 47°
2026-05-07 18:21 -41.91890 144.90063 39028 ft 545 kts 47°
2026-05-07 18:21 -41.86307 144.96924 39028 ft 543 kts 46°
2026-05-07 18:22 -41.80730 145.03759 39032 ft 542 kts 46°
2026-05-07 18:22 -41.75185 145.10539 39038 ft 540 kts 46°
2026-05-07 18:23 -41.69608 145.17342 39035 ft 538 kts 46°
2026-05-07 18:23 -41.64083 145.24065 39034 ft 536 kts 46°
2026-05-07 18:24 -41.58566 145.30762 39025 ft 534 kts 46°
2026-05-07 18:24 -41.53094 145.37388 39017 ft 532 kts 46°
2026-05-07 18:25 -41.47617 145.44004 39002 ft 530 kts 45°
2026-05-07 18:25 -41.42160 145.50581 38996 ft 528 kts 45°
2026-05-07 18:26 -41.36709 145.57136 38959 ft 527 kts 45°
2026-05-07 18:26 -41.31267 145.63665 38939 ft 526 kts 46°
2026-05-07 18:27 -41.25821 145.70182 38909 ft 526 kts 46°
2026-05-07 18:27 -41.20375 145.76685 38881 ft 527 kts 46°
2026-05-07 18:28 -41.14900 145.83209 38927 ft 537 kts 45°
2026-05-07 18:28 -41.09299 145.89864 38921 ft 539 kts 45°
2026-05-07 18:29 -41.03685 145.96517 38928 ft 541 kts 45°
2026-05-07 18:29 -40.98093 146.03131 38929 ft 544 kts 45°
2026-05-07 18:30 -40.92417 146.09827 38928 ft 544 kts 44°
2026-05-07 18:30 -40.86812 146.16430 38929 ft 543 kts 44°
2026-05-07 18:31 -40.81166 146.23070 38932 ft 542 kts 44°
2026-05-07 18:31 -40.75448 146.29546 38925 ft 543 kts 40°
2026-05-07 18:32 -40.69370 146.35469 38924 ft 542 kts 38°
2026-05-07 18:32 -40.63319 146.41411 38913 ft 542 kts 39°
2026-05-07 18:33 -40.57268 146.47342 38914 ft 542 kts 38°
2026-05-07 18:33 -40.51213 146.53252 38910 ft 541 kts 38°
2026-05-07 18:34 -40.45167 146.59137 38909 ft 542 kts 38°
2026-05-07 18:34 -40.39099 146.65030 38914 ft 542 kts 38°
2026-05-07 18:35 -40.33064 146.70878 38916 ft 543 kts 38°
2026-05-07 18:35 -40.26979 146.76761 38916 ft 544 kts 38°
2026-05-07 18:36 -40.20878 146.82646 38923 ft 546 kts 38°
2026-05-07 18:36 -40.14753 146.88541 38930 ft 547 kts 38°
2026-05-07 18:37 -40.08599 146.94449 38940 ft 549 kts 37°
2026-05-07 18:37 -40.02431 147.00357 38948 ft 550 kts 37°
2026-05-07 18:38 -39.96266 147.06249 38948 ft 551 kts 37°
2026-05-07 18:38 -39.90078 147.12150 38950 ft 551 kts 37°
2026-05-07 18:39 -39.83881 147.18045 38948 ft 551 kts 37°
2026-05-07 18:39 -39.77715 147.23898 38948 ft 551 kts 37°
2026-05-07 18:40 -39.71526 147.29760 38943 ft 551 kts 37°
2026-05-07 18:40 -39.65340 147.35605 38946 ft 550 kts 36°
2026-05-07 18:41 -39.59143 147.41447 38939 ft 550 kts 36°
2026-05-07 18:41 -39.52951 147.47271 38938 ft 549 kts 36°
2026-05-07 18:42 -39.46757 147.53085 38940 ft 549 kts 36°
2026-05-07 18:42 -39.41621 147.57895 38942 ft 548 kts 36°
2026-05-07 18:43 -39.35424 147.63688 38939 ft 548 kts 36°
2026-05-07 18:43 -39.29240 147.69454 38941 ft 548 kts 36°
2026-05-07 18:44 -39.23094 147.75174 38936 ft 547 kts 36°
2026-05-07 18:44 -39.16913 147.80912 38935 ft 548 kts 36°
2026-05-07 18:45 -39.10724 147.86646 38940 ft 548 kts 35°
2026-05-07 18:45 -39.04527 147.92374 38940 ft 548 kts 35°
2026-05-07 18:46 -38.98317 147.98101 38947 ft 549 kts 35°
2026-05-07 18:46 -38.92103 148.03821 38947 ft 549 kts 35°
2026-05-07 18:47 -38.85886 148.09530 38946 ft 550 kts 35°
2026-05-07 18:47 -38.79664 148.15231 38955 ft 550 kts 35°
2026-05-07 18:48 -38.73436 148.20924 38961 ft 550 kts 34°
2026-05-07 18:48 -38.67206 148.26608 38965 ft 549 kts 34°
2026-05-07 18:49 -38.60992 148.32265 39117 ft 549 kts 34°
2026-05-07 18:49 -38.57883 148.35091 39341 ft 547 kts 34°
2026-05-07 18:49 -38.54752 148.37867 39564 ft 546 kts 30°
2026-05-07 18:49 -38.51498 148.40228 39802 ft 544 kts 24°
2026-05-07 18:50 -38.48048 148.42184 39951 ft 541 kts 18°
2026-05-07 18:50 -38.40813 148.44725 39968 ft 533 kts
2026-05-07 18:51 -38.33572 148.46485 39972 ft 533 kts
2026-05-07 18:51 -38.26293 148.48301 39974 ft 533 kts
2026-05-07 18:52 -38.19006 148.50116 39977 ft 533 kts
2026-05-07 18:52 -38.11702 148.51928 39997 ft 534 kts
2026-05-07 18:53 -38.04462 148.53720 40003 ft 534 kts
2026-05-07 18:53 -37.97107 148.55537 40007 ft 534 kts
2026-05-07 18:54 -37.89807 148.57337 40008 ft 533 kts
2026-05-07 18:54 -37.82566 148.59119 40013 ft 533 kts
2026-05-07 18:55 -37.75296 148.60904 40016 ft 532 kts
2026-05-07 18:55 -37.68027 148.62686 40016 ft 531 kts
2026-05-07 18:56 -37.60775 148.64459 40019 ft 530 kts
2026-05-07 18:56 -37.53535 148.66226 40024 ft 529 kts
2026-05-07 18:57 -37.46349 148.67977 40030 ft 529 kts
2026-05-07 18:57 -37.39078 148.69745 40033 ft 528 kts
2026-05-07 18:58 -37.31915 148.71483 40032 ft 527 kts
2026-05-07 18:58 -37.24705 148.73228 40035 ft 527 kts
2026-05-07 18:59 -37.17502 148.74970 40041 ft 527 kts
2026-05-07 18:59 -37.10310 148.76704 40045 ft 527 kts
2026-05-07 19:00 -37.03101 148.78440 40049 ft 527 kts
2026-05-07 19:00 -36.95909 148.80168 40056 ft 527 kts
2026-05-07 19:01 -36.88694 148.81898 40056 ft 527 kts
2026-05-07 19:01 -36.81490 148.83623 40059 ft 528 kts
2026-05-07 19:02 -36.74269 148.85347 40058 ft 528 kts
2026-05-07 19:02 -36.67038 148.87072 40065 ft 529 kts
2026-05-07 19:03 -36.59803 148.88793 40070 ft 530 kts
2026-05-07 19:03 -36.52536 148.90520 40078 ft 531 kts
2026-05-07 19:04 -36.45331 148.92228 40090 ft 531 kts
2026-05-07 19:04 -36.38054 148.93950 40092 ft 532 kts
2026-05-07 19:05 -36.30730 148.95681 40097 ft 532 kts
2026-05-07 19:05 -36.23475 148.97392 40117 ft 531 kts
2026-05-07 19:06 -36.16210 148.99101 40119 ft 529 kts
2026-05-07 19:06 -36.05362 149.01648 40135 ft 526 kts
2026-05-07 19:07 -36.01817 149.02484 40117 ft 513 kts
2026-05-07 19:07 -35.98361 149.03300 40123 ft 498 kts
2026-05-07 19:07 -35.94992 149.04093 40126 ft 487 kts
2026-05-07 19:07 -35.91660 149.04868 40137 ft 488 kts
2026-05-07 19:08 -35.84981 149.06413 40138 ft 493 kts
2026-05-07 19:08 -35.78253 149.07980 40143 ft 491 kts
2026-05-07 19:09 -35.71550 149.09540 40148 ft 489 kts
2026-05-07 19:09 -35.64850 149.11096 40150 ft 489 kts
2026-05-07 19:10 -35.58176 149.12642 40149 ft 489 kts
2026-05-07 19:10 -35.51481 149.14191 40145 ft 489 kts
2026-05-07 19:11 -35.44799 149.15735 40138 ft 488 kts
2026-05-07 19:11 -35.38108 149.17278 40132 ft 488 kts
2026-05-07 19:12 -35.31425 149.18817 39902 ft 488 kts
2026-05-07 19:12 -35.28133 149.19914 39668 ft 497 kts 14°
2026-05-07 19:12 -35.24997 149.21807 39449 ft 506 kts 27°
2026-05-07 19:13 -35.22187 149.24414 39182 ft 511 kts 39°
2026-05-07 19:13 -35.19797 149.27655 38770 ft 515 kts 51°
2026-05-07 19:13 -35.17942 149.31240 38344 ft 515 kts 63°
2026-05-07 19:13 -35.16372 149.35189 37942 ft 511 kts 64°
2026-05-07 19:14 -35.14857 149.39075 37526 ft 508 kts 64°
2026-05-07 19:14 -35.13328 149.43012 37131 ft 505 kts 63°
2026-05-07 19:14 -35.11849 149.46829 36723 ft 502 kts 63°
2026-05-07 19:14 -35.10372 149.50650 36330 ft 500 kts 64°
2026-05-07 19:15 -35.08882 149.54516 35847 ft 500 kts 64°
2026-05-07 19:15 -35.07402 149.58362 35360 ft 500 kts 64°
2026-05-07 19:15 -35.05925 149.62214 34878 ft 501 kts 64°
2026-05-07 19:15 -35.04458 149.66049 34399 ft 500 kts 64°
2026-05-07 19:16 -35.02989 149.69900 33886 ft 500 kts 64°
2026-05-07 19:16 -35.01510 149.73764 33346 ft 500 kts 64°
2026-05-07 19:16 -35.00031 149.77585 32818 ft 499 kts 64°
2026-05-07 19:16 -34.98531 149.81417 32294 ft 498 kts 64°
2026-05-07 19:17 -34.97032 149.85205 31784 ft 496 kts 64°
2026-05-07 19:17 -34.95520 149.88983 31286 ft 494 kts 64°
2026-05-07 19:17 -34.93996 149.92744 30782 ft 492 kts 64°
2026-05-07 19:17 -34.92474 149.96461 30309 ft 490 kts 64°
2026-05-07 19:18 -34.90941 150.00179 29744 ft 488 kts 64°
2026-05-07 19:18 -34.89430 150.03855 29177 ft 485 kts 64°
2026-05-07 19:18 -34.87942 150.07482 28632 ft 483 kts 64°
2026-05-07 19:18 -34.86451 150.11134 28083 ft 480 kts 64°
2026-05-07 19:19 -34.84969 150.14772 27553 ft 477 kts 64°
2026-05-07 19:19 -34.83512 150.18356 27234 ft 470 kts 64°
2026-05-07 19:19 -34.82070 150.21912 26865 ft 464 kts 64°
2026-05-07 19:19 -34.80647 150.25422 26549 ft 457 kts 64°
2026-05-07 19:20 -34.79251 150.28875 26242 ft 450 kts 64°
2026-05-07 19:20 -34.77881 150.32266 25939 ft 444 kts 64°
2026-05-07 19:20 -34.76518 150.35618 25637 ft 439 kts 64°
2026-05-07 19:20 -34.75173 150.38923 25343 ft 434 kts 64°
2026-05-07 19:21 -34.73858 150.42138 25060 ft 429 kts 64°
2026-05-07 19:21 -34.72526 150.45382 24771 ft 425 kts 64°
2026-05-07 19:21 -34.71633 150.47545 24563 ft 422 kts 64°
2026-05-07 19:21 -34.69878 150.51774 24178 ft 417 kts 64°
2026-05-07 19:22 -34.69031 150.53807 23998 ft 414 kts 64°
2026-05-07 19:22 -34.67693 150.56996 23707 ft 411 kts 64°
2026-05-07 19:22 -34.66393 150.60065 23372 ft 407 kts 64°
2026-05-07 19:22 -34.65117 150.63079 23049 ft 404 kts 64°
2026-05-07 19:23 -34.63834 150.66104 22712 ft 401 kts 64°
2026-05-07 19:23 -34.62561 150.69105 22394 ft 398 kts 64°
2026-05-07 19:23 -34.61306 150.72080 22074 ft 394 kts 64°
2026-05-07 19:23 -34.59798 150.74804 21922 ft 384 kts 45°
2026-05-07 19:24 -34.57913 150.77018 21705 ft 368 kts 38°
2026-05-07 19:24 -34.56049 150.78992 21397 ft 358 kts 38°
2026-05-07 19:24 -34.54159 150.81013 20908 ft 356 kts 39°
2026-05-07 19:24 -34.52332 150.83036 20435 ft 353 kts 40°
2026-05-07 19:25 -34.50566 150.85041 19984 ft 350 kts 41°
2026-05-07 19:25 -34.48812 150.87063 19538 ft 347 kts 41°
2026-05-07 19:25 -34.47081 150.89068 19111 ft 343 kts 41°
2026-05-07 19:25 -34.45374 150.91046 18693 ft 340 kts 41°
2026-05-07 19:26 -34.43647 150.93046 18227 ft 337 kts 42°
2026-05-07 19:26 -34.42155 150.95207 17730 ft 335 kts 65°
2026-05-07 19:26 -34.41188 150.97712 17211 ft 332 kts 65°
2026-05-07 19:26 -34.40103 151.00175 16695 ft 331 kts 63°
2026-05-07 19:27 -34.38984 151.02628 16020 ft 336 kts 63°
2026-05-07 19:27 -34.37833 151.05141 15251 ft 344 kts 63°
2026-05-07 19:27 -34.36650 151.07718 14362 ft 357 kts 63°
2026-05-07 19:27 -34.35582 151.10041 13585 ft 361 kts 63°
2026-05-07 19:28 -34.34368 151.12675 12711 ft 359 kts 63°
2026-05-07 19:28 -34.33196 151.15216 12321 ft 336 kts 63°
2026-05-07 19:28 -34.32074 151.17642 11547 ft 327 kts 63°
2026-05-07 19:28 -34.30971 151.20023 10841 ft 318 kts 63°
2026-05-07 19:29 -34.30058 151.22365 10266 ft 300 kts 81°
2026-05-07 19:29 -34.29929 151.24801 9406 ft 285 kts 109°
2026-05-07 19:29 -34.30670 151.26822 9119 ft 243 kts 139°
2026-05-07 19:29 -34.31897 151.27930 8865 ft 206 kts 169°
2026-05-07 19:30 -34.33245 151.28056 8149 ft 200 kts 199°
2026-05-07 19:30 -34.34409 151.27162 7538 ft 202 kts 227°
2026-05-07 19:30 -34.35385 151.25913 7074 ft 203 kts 223°
2026-05-07 19:30 -34.36388 151.24700 6479 ft 210 kts 223°
2026-05-07 19:31 -34.37440 151.23417 5831 ft 217 kts 223°
2026-05-07 19:31 -34.38355 151.21942 5307 ft 223 kts 247°
2026-05-07 19:31 -34.38463 151.20120 5165 ft 220 kts 278°
2026-05-07 19:31 -34.37698 151.18517 5125 ft 226 kts 311°
2026-05-07 19:32 -34.36298 151.17631 4970 ft 234 kts 346°
2026-05-07 19:32 -34.34659 151.17726 4830 ft 240 kts 12°
2026-05-07 19:32 -34.33298 151.18229 4621 ft 241 kts 19°
2026-05-07 19:32 -34.31497 151.18999 4385 ft 240 kts 18°
2026-05-07 19:33 -34.29911 151.19610 4265 ft 234 kts 15°
2026-05-07 19:33 -34.28334 151.20148 3904 ft 237 kts 13°
2026-05-07 19:33 -34.26746 151.20646 3461 ft 240 kts 12°
2026-05-07 19:33 -34.25155 151.21124 3378 ft 232 kts 12°
2026-05-07 19:34 -34.23627 151.21579 3302 ft 225 kts 11°
2026-05-07 19:34 -34.22121 151.22027 3192 ft 220 kts 11°
2026-05-07 19:34 -34.20623 151.22470 2981 ft 221 kts 11°
2026-05-07 19:34 -34.19145 151.22909 2969 ft 219 kts 11°
2026-05-07 19:35 -34.17678 151.23228 2961 ft 211 kts 359°
2026-05-07 19:35 -34.16295 151.23159 2967 ft 194 kts 347°
2026-05-07 19:35 -34.14998 151.22900 2967 ft 184 kts 343°
2026-05-07 19:35 -34.13813 151.22604 2966 ft 166 kts 341°
2026-05-07 19:36 -34.12719 151.22317 2969 ft 157 kts 340°
2026-05-07 19:36 -34.11667 151.22041 2972 ft 154 kts 340°
2026-05-07 19:36 -34.10630 151.21766 2915 ft 156 kts 340°
2026-05-07 19:36 -34.09582 151.21497 2715 ft 154 kts 340°
2026-05-07 19:37 -34.08579 151.21236 2507 ft 149 kts 338°
2026-05-07 19:37 -34.07598 151.20976 2316 ft 146 kts 338°
2026-05-07 19:37 -34.06601 151.20717 2119 ft 146 kts 337°
2026-05-07 19:37 -34.05599 151.20452 1921 ft 148 kts 337°
2026-05-07 19:38 -34.04624 151.20202 1735 ft 146 kts 336°
2026-05-07 19:38 -34.03672 151.19955 1515 ft 141 kts 336°
2026-05-07 19:38 -34.02708 151.19702 1328 ft 138 kts 337°
2026-05-07 19:38 -34.01778 151.19459 1131 ft 138 kts 337°
2026-05-07 19:39 -34.01155 151.19297 1015 ft 135 kts 338°
2026-05-07 19:39 -34.00554 151.19141 891 ft 132 kts 340°
2026-05-07 19:40 -33.99649 151.18904 702 ft 132 kts 341°
2026-05-07 19:40 -33.98791 151.18683 530 ft 127 kts 341°
2026-05-07 19:40 -33.97925 151.18446 369 ft 130 kts 341°
2026-05-07 19:40 -33.97051 151.18221 181 ft 130 kts 342°
2026-05-07 19:41 -33.96187 151.17992 50 ft 123 kts 343°
2026-05-07 19:41 -33.95475 151.17808 34 ft 75 kts 351°
2026-05-07 19:41 -33.95251 151.17760 34 ft 3 kts 349°
2026-05-07 19:41 -33.95202 151.17747 34 ft 12 kts 348°
2026-05-07 19:42 -33.95095 151.17720 32 ft 19 kts 348°
2026-05-07 19:42 -33.94952 151.17682 33 ft 23 kts 347°
2026-05-07 19:42 -33.94786 151.17638 34 ft 25 kts 347°
2026-05-07 19:42 -33.94619 151.17582 35 ft 20 kts 340°
2026-05-07 19:43 -33.94487 151.17511 34 ft 22 kts 330°
2026-05-07 19:43 -33.94362 151.17396 35 ft 23 kts 318°
2026-05-07 19:43 -33.94232 151.17296 34 ft 23 kts 342°
2026-05-07 19:43 -33.94084 151.17252 34 ft 23 kts 346°
2026-05-07 19:44 -33.93910 151.17210 34 ft 26 kts 348°
2026-05-07 19:44 -33.93729 151.17163 34 ft 29 kts 347°
2026-05-07 19:44 -33.93548 151.17114 34 ft 9 kts 345°
2026-05-07 19:44 -33.93515 151.17081 35 ft 7 kts 286°
2026-05-07 19:45 -33.93509 151.17008 35 ft 11 kts 263°
2026-05-07 19:45 -33.93529 151.16911 35 ft 8 kts 223°
2026-05-07 19:45 -33.93556 151.16908 35 ft 6 kts 151°
2026-05-07 19:45 -33.93604 151.16919 35 ft 9 kts 177°
2026-05-07 19:46 -33.93621 151.16920 35 ft 0 kts 177°